sat.trackr.live / text

‹ back to catalog

STARLINK-37278

NORAD 68733 · 2026-082F

PAYLOAD ACTIVE UNKNOWN

§ Identity

Operator
Country
US
Launch date
2026-04-15
Launch site
AFWTR
Launch vehicle
Mass (kg)
RCS (m²)

Purposes: comms

External: N2YO · Heavens-Above · Gunter

§ Orbital elements

Epoch: 2026-05-25T04:00:03.998880Z

Period
92.95 min
Inclination
97.2855°
Eccentricity
0.0001792
Mean motion
15.49182674 rev/d
Perigee alt
417.9 km
Apogee alt
420.3 km
Semi-major
6,797.3 km
B*
2.5810e-4
RAAN
8.8522°
Arg perigee
77.1860°
Mean anomaly
184.4405°
Rev number
579

§ Raw data

STARLINK-372781 68733U 26082F   26145.16671295  .00013969  00000+0  25810-3 0  99962 68733  97.2855   8.8522 0001792  77.1860 184.4405 15.49182674  5792

JSON: /api/v1/satellites/68733 · /tle

For live sub-satellite position, see the globe view (requires WebGL).

§ Visibility from observer

Set your observer location to see the next 7 days of passes ≥ 10°. The values pass through the URL so the page stays shareable.

No JS? Fill the form by hand. The geolocation button needs JavaScript.